Location: ???????
(38.3360°N, 23.6977°E)
Time: 05:59:04
(UTC+00:00)

Cosmos 1300 Rocket - Pass Details

Date: 17 November 2025
Orbit: 594 x 620 km, 82.5° (Epoch: 09 December)

Event Time Altitude Azimuth Distance (km) Brightness Sun altitude
Rises 15:32:58 0° 193° (SSW) 2,879 7.5 -4.8°
Reaches altitude 10° 15:35:12 10° 196° (SSW) 1,976 6.7 -5.2°
Maximum altitude 15:39:33 65° 278° (W) 677 4.1 -6.0°
Drops below altitude 10° 15:43:55 10° 1° (N) 1,979 6.0 -6.8°
Sets 15:46:09 0° 5° (N) 2,884 6.8 -7.2°
